User: anonymous   Login
Location: Caltech
(34.1382°N, 118.1253°W)
Time: 10:18:00
(UTC-08:00)
Language:

Cosmos 1943 Rocket - Orbit

View from above orbital plane
View from above orbital plane
View from above satellite
View from above satellite

Ground track
Ground track

The orbit data is extracted from the following two-line orbital elements,

1 19120U 88039B   15024.52252238 -.00000146  00000-0 -46642-4 0  2578
2 19120 071.0167 012.9242 0019444 088.1118 050.0413 14.19080772382304
Epoch (UTC): 24 January 2015 12:32:25
Eccentricity: 0.0019444
inclination: 71.0167°
perigee height: 814 km
apogee height: 842 km
right ascension of ascending node: 12.9242°
argument of perigee: 88.1118°
revolutions per day: 14.19080772
mean anomaly at epoch: 50.0413°
orbit number at epoch: 38230

The dashed part of the orbit path shows where the satellite is in the earth's shadow,  

DLR